FW4018 Weather Reports


time (UTC)temp
C
wind
direction
speed
KPH
gust
KPH
rain 1hr
cm
rain 24hr
cm
rain mn
cm
humidity
%
barometer
mb
20260504081537 10 93 4.8 12.9 0.25 0.64 0.64 100 1009.4
20260504080537 10 96 6.4 11.3 0.30 0.64 0.64 100 1009.3
20260504050517 10 84 4.8 11.3 0.00 0.03 0.03 100 1008.6
20260504045517 10 94 4.8 14.5 0.00 0.03 0.03 100 1008.6
20260504044517 10 92 4.8 12.9 0.00 0.03 0.03 100 1008.7
20260504043517 10 95 6.4 16.1 0.00 0.03 0.03 100 1008.8
20260504042517 10 99 6.4 16.1 0.00 0.03 0.03 100 1008.7
20260504041517 10 94 6.4 16.1 0.00 0.03 0.03 100 1008.7
20260504040517 10 104 8.0 16.1 0.00 0.03 0.03 100 1008.7
20260504035517 10 90 6.4 16.1 0.00 0.03 0.03 100 1008.7
20260504034517 10 98 6.4 12.9 0.00 0.03 0.03 100 1008.6
20260504033517 10 94 6.4 14.5 0.00 0.03 0.03 100 1008.5
20260504032518 10 89 6.4 14.5 0.00 0.03 0.03 100 1008.5
20260504031517 9 94 6.4 16.1 0.00 0.03 0.03 100 1008.4
20260504030517 9 104 3.2 8.0 0.00 0.03 0.03 100 1008.3
20260504025517 9 92 6.4 16.1 0.00 0.03 0.03 100 1008.3
20260504024517 9 93 6.4 16.1 0.00 0.03 0.03 100 1008.3
20260504023537 9 98 6.4 14.5 0.00 0.03 0.03 100 1008.3
20260504022517 9 94 6.4 12.9 0.00 0.03 0.03 100 1008.4
20260504021517 9 96 8.0 16.1 0.00 0.03 0.03 100 1008.3
20260504020517 9 98 8.0 19.3 0.00 0.03 0.03 100 1008.3
20260504015517 9 89 6.4 17.7 0.00 0.03 0.03 100 1008.1
20260504014557 9 101 6.4 14.5 0.00 0.03 0.03 100 1008.0
20260504013517 9 97 8.0 17.7 0.00 0.03 0.03 100 1008.0
20260504012537 9 97 8.0 16.1 0.00 0.03 0.03 100 1008.3
20260504011517 9 99 8.0 19.3 0.00 0.03 0.03 100 1008.3
20260504010517 9 86 4.8 12.9 0.00 0.03 0.03 100 1008.4
20260504005517 9 101 8.0 19.3 0.00 0.03 0.03 100 1008.5
20260504004517 9 94 6.4 17.7 0.00 0.03 0.03 100 1008.6
20260504003517 9 92 6.4 17.7 0.00 0.03 0.03 100 1008.5
20260504002518 8 80 8.0 16.1 0.00 0.03 0.03 100 1008.6
20260504001518 8 78 6.4 16.1 0.00 0.03 0.03 100 1008.7
20260504000519 8 86 9.7 20.9 0.00 0.03 0.03 100 1008.9
20260503235557 8 86 8.0 19.3 0.00 0.03 0.03 100 1008.9
20260503234517 8 92 8.0 17.7 0.00 0.03 0.03 100 1008.9
20260503233537 8 99 6.4 22.5 0.00 0.03 0.03 100 1008.9
20260503232517 8 73 6.4 16.1 0.03 0.03 0.03 100 1009.0
20260503231517 8 80 8.0 16.1 0.03 0.03 0.03 100 1009.1
20260503230518 8 81 3.2 6.4 0.03 0.03 0.03 100 1009.2
20260503225518 8 86 4.8 11.3 0.03 0.03 0.03 100 1009.4
20260503223517 8 93 6.4 16.1 0.03 0.03 0.03 100 1009.8
20260503222537 8 95 4.8 12.9 0.00 0.00 0.00 100 1009.9
20260503221517 8 93 6.4 16.1 0.00 0.00 0.00 100 1010.0
20260503220518 8 62 4.8 12.9 0.00 0.00 0.00 100 1010.1
20260503215517 8 89 6.4 16.1 0.00 0.00 0.00 100 1010.2
20260503214517 8 96 6.4 14.5 0.00 0.00 0.00 100 1010.4
20260503213517 8 95 6.4 12.9 0.00 0.00 0.00 100 1010.5
20260503212518 8 94 4.8 17.7 0.00 0.00 0.00 100 1010.5
20260503211537 8 93 6.4 17.7 0.00 0.00 0.00 100 1010.4
20260503210517 8 73 6.4 16.1 0.00 0.00 0.00 100 1010.3
20260503205517 8 81 6.4 14.5 0.00 0.00 0.00 100 1010.7
20260503204517 8 78 6.4 16.1 0.00 0.00 0.00 100 1010.9
20260503203517 8 85 4.8 14.5 0.00 0.00 0.00 100 1011.0
20260503202517 8 91 8.0 16.1 0.00 0.00 0.00 100 1011.2
20260503201517 9 95 6.4 20.9 0.00 0.00 0.00 100 1011.4
20260503200517 9 101 6.4 17.7 0.00 0.00 0.00 100 1011.6
20260503195518 9 89 6.4 17.7 0.00 0.00 0.00 100 1011.4
20260503194517 9 84 6.4 16.1 0.00 0.00 0.00 100 1011.7
20260503193517 9 100 4.8 11.3 0.00 0.00 0.00 100 1012.0
20260503192517 9 91 6.4 12.9 0.00 0.00 0.00 100 1012.2
20260503191517 9 90 6.4 14.5 0.00 0.00 0.00 100 1012.3
20260503190518 9 95 4.8 11.3 0.00 0.00 0.00 100 1012.2
20260503185515 9 93 4.8 14.5 0.00 0.00 0.00 100 1012.5
20260503183518 9 110 6.4 14.5 0.00 0.00 0.00 100 1012.9
20260503182518 9 96 3.2 8.0 0.00 0.00 0.00 100 1013.0
20260503181517 9 100 4.8 11.3 0.00 0.00 0.00 100 1013.1
20260503180517 9 104 3.2 6.4 0.00 0.00 0.00 100 1013.2
20260503175517 9 95 3.2 9.7 0.00 0.00 0.00 100 1013.2
20260503174558 9 107 3.2 9.7 0.00 0.00 0.00 100 1013.3
20260503173517 10 103 4.8 9.7 0.00 0.00 0.00 100 1013.4
20260503172516 10 87 4.8 9.7 0.00 0.00 0.00 100 1013.5
20260503171516 10 89 4.8 14.5 0.00 0.00 0.00 100 1013.5
20260503170536 10 105 4.8 9.7 0.00 0.00 0.00 100 1013.6
20260503150536 10 117 3.2 8.0 0.00 0.00 0.00 100 1014.1
20260503130516 12 98 6.4 9.7 0.00 0.00 0.00 83 1014.9
20260503110516 12 97 6.4 12.9 0.00 0.00 0.00 84 1016.0